Weather History for Kansas City International, MO

Change the Weather History Date:

Saturday, March 2, 2013

  Actual Average Record
Temperature  
Mean Temperature 27 °F 39 °F  
Max Temperature 32 °F 49 °F 80 °F (1901)
Min Temperature 21 °F 29 °F -7 °F (1980)
Degree Days  
Heating Degree Days 38 26  
Month to date heating degree days 76 52  
Since 1 July heating degree days 3808 4097  
Cooling Degree Days 0 0  
Month to date cooling degree days 0 0  
Year to date cooling degree days 0 0  
Moisture  
Dew Point 16 °F    
Average Humidity 67    
Maximum Humidity 81    
Minimum Humidity 53    
Precipitation  
Precipitation T in 0.06 in 1.23 in (1940)
Month to date precipitation T 0.12  
Year to date precipitation 2.89 2.65  
Snow  
Snow T in 0.10 in 8.60 in (1960)
Month to date snowfall T 0.2  
Since 1 July snowfall 25.2 16.4  
Snow Depth 9.00 in    
Sea Level Pressure  
Sea Level Pressure 30.31 in    
Wind  
Wind Speed 6 mph (NW)    
Max Wind Speed 14 mph    
Max Gust Speed 16 mph    
Visibility 10 miles    
Events      
T = Trace of Precipitation, MM = Missing Value Source: NWS Daily Summary

Daily Weather History Graph

Daily Weather History Graph

Search for Another Location

Airport:

Trip Planner

Search our weather history database for the weather conditions in past years. The results will help you decide how hot, cold, wet, or windy it might be!

Date:

Astronomy

Mar. 02, 2013 Rise Set
Actual Time 6:49 AM CST 6:12 PM CST
Civil Twilight 6:22 AM CST 6:39 PM CST
Nautical Twilight 5:51 AM CST 7:10 PM CST
Astronomical Twilight 5:20 AM CST 7:41 PM CST
Moon 11:50 PM CST 9:20 AM CST
Length of Visible Light 12h 16m
Length of Day
11h 22m
Waning Gibbous, 74% of the Moon is Illuminated
Mar 2
Waning Gibbous
Mar 4
Last Quarter
Mar 11
New
Mar 19
First Quarter
Mar 27
Full

Hourly Weather History & Observations

Time (CST) Temp. Windchill Dew Point Humidity Pressure Visibility Wind Dir Wind Speed Gust Speed Precip Events Conditions
12:53 AM 24.1 °F 15.2 °F 18.0 °F 77% 30.35 in 10.0 mi NNW 8.1 mph - N/A   Overcast
1:17 AM 24.8 °F 17.9 °F 17.6 °F 74% 30.31 in 10.0 mi NNW 5.8 mph - N/A   Overcast
1:53 AM 24.1 °F 17.0 °F 18.0 °F 77% 30.34 in 10.0 mi NNW 5.8 mph - N/A   Overcast
2:53 AM 24.1 °F 15.2 °F 16.0 °F 71% 30.33 in 10.0 mi North 8.1 mph - N/A   Overcast
3:53 AM 24.1 °F 12.5 °F 15.1 °F 69% 30.33 in 10.0 mi North 12.7 mph - N/A   Overcast
4:53 AM 23.0 °F 13.1 °F 14.0 °F 68% 30.35 in 10.0 mi North 9.2 mph - N/A   Overcast
5:53 AM 21.9 °F 11.7 °F 12.9 °F 68% 30.36 in 10.0 mi NNW 9.2 mph - N/A   Overcast
6:53 AM 21.9 °F 11.0 °F 12.9 °F 68% 30.38 in 10.0 mi NNW 10.4 mph - N/A   Overcast
7:53 AM 21.9 °F 12.5 °F 12.9 °F 68% 30.38 in 10.0 mi North 8.1 mph - N/A   Overcast
8:53 AM 21.9 °F 11.7 °F 12.9 °F 68% 30.38 in 10.0 mi North 9.2 mph - N/A   Overcast
9:53 AM 24.1 °F 16.0 °F 14.0 °F 65% 30.38 in 10.0 mi North 6.9 mph - 0.00 in   Mostly Cloudy
10:53 AM 25.0 °F 19.3 °F 14.0 °F 63% 30.38 in 10.0 mi WNW 4.6 mph - N/A   Mostly Cloudy
11:53 AM 28.0 °F 21.7 °F 16.0 °F 61% 30.37 in 10.0 mi NNW 5.8 mph - N/A   Mostly Cloudy
12:53 PM 28.0 °F 22.8 °F 16.0 °F 61% 30.34 in 10.0 mi North 4.6 mph - N/A   Scattered Clouds
1:53 PM 30.9 °F 27.5 °F 16.0 °F 54% 30.31 in 10.0 mi NNE 3.5 mph - N/A   Partly Cloudy
2:53 PM 30.9 °F - 15.1 °F 52% 30.30 in 10.0 mi Calm Calm - N/A   Scattered Clouds
3:53 PM 28.9 °F 21.9 °F 17.1 °F 61% 30.28 in 10.0 mi SW 6.9 mph - N/A   Partly Cloudy
4:53 PM 28.9 °F 22.8 °F 17.1 °F 61% 30.28 in 10.0 mi SW 5.8 mph - N/A   Partly Cloudy
5:53 PM 27.0 °F - 15.1 °F 61% 30.28 in 10.0 mi Calm Calm - N/A   Scattered Clouds
6:53 PM 26.6 °F 21.2 °F 15.8 °F 64% 30.23 in 10.0 mi South 4.6 mph - N/A   Mostly Cloudy
7:53 PM 26.1 °F 20.5 °F 16.0 °F 66% 30.26 in 10.0 mi South 4.6 mph - N/A   Mostly Cloudy
8:53 PM 25.0 °F 18.1 °F 18.0 °F 75% 30.24 in 10.0 mi South 5.8 mph - N/A   Overcast
9:53 PM 27.0 °F 19.5 °F 19.0 °F 72% 30.24 in 10.0 mi SSW 6.9 mph - N/A   Overcast
10:53 PM 27.0 °F 19.5 °F 19.0 °F 72% 30.22 in 10.0 mi South 6.9 mph - N/A   Overcast
11:53 PM 27.0 °F 19.5 °F 19.0 °F 72% 30.20 in 10.0 mi South 6.9 mph - N/A   Overcast